Content
SEND FEEDBACK

Daily
Averages
Monthly
Summary
United States of America

FULLERTON, NORTH DAKOTA


Home > North America > United States > North Dakota
Elevation: 1408 feet     Latitude: 46 09N     Longitude: 098 24W

WEATHER
 
SELECT A DAY
Number of Records: 73,830;   Date Range: 5/13/11 - 8/25/14
 
SHARE

PRINT THIS DATA

[ ← Previous Day ]
WEATHER ALMANAC - JANUARY 23, 2013
[ Next Day → ]
[ °C ]   °F
Weather ElementAverageHighLow
Temperature-0.1 °F6.8 °F (1:35 am)-9.4 °F (10:15 pm)
Dewpoint-5.9 °F5 °F (12:55 am)-18.4 °F (11:35 pm)
Humidity77 %100 % (12:55 am)60 % (4:35 pm)
Barometer30.38 in30.60 in (10:35 pm)30.11 in (12:35 am)
Wind Speed14.1 mph24.2 mph (9:35 am)
Wind Gust27.6 mph (9:15 am)
Weather ElementAverage
Visibility9.9 mi
Wind DirectionWSW (246.1 °)

Weather ElementTotal
Precipitation---
Heating Degree Days66.3 (Base 65)
Averaged from 66 records on January 23, 2013
WEATHER CONDITIONS BREAKOUT
WIND DIRECTION BREAKOUT
WEATHER BY HOUR - JANUARY 23, 2013
[ °C ]   °F
Local TimeTemperatureDewpointHumidityBarometerVisibilityWind DirectionWind SpeedGust SpeedPrecipitationEventsConditions
12:35 AM5.0 °F1.4 °F85 %30.11 in10.0 miSW (220°)5.8 mph
12:55 AM5.0 °F5.0 °F100 %30.12 in10.0 miSW (230°)4.6 mphPartly Cloudy
1:35 AM6.8 °F5.0 °F92 %30.12 in10.0 miSW (230°)5.8 mphSnowLight Snow
1:55 AM6.8 °F5.0 °F92 %30.12 in10.0 miWest (260°)4.6 mphSnowLight Snow
2:15 AM6.8 °F5.0 °F92 %30.12 in10.0 miWest (260°)6.9 mph
2:35 AM6.8 °F5.0 °F92 %30.12 in10.0 miWest (260°)6.9 mph
2:55 AM6.8 °F3.2 °F85 %30.13 in10.0 miWest (270°)6.9 mph
3:55 AM5.0 °F3.2 °F92 %30.15 in10.0 miWNW (300°)8.1 mph
4:15 AM5.0 °F3.2 °F92 %30.15 in10.0 miWNW (290°)8.1 mph
4:35 AM5.0 °F3.2 °F92 %30.16 in10.0 miWNW (300°)10.4 mph
4:55 AM6.8 °F3.2 °F85 %30.16 in10.0 miNW (310°)11.5 mph
5:15 AM6.8 °F3.2 °F85 %30.16 in10.0 miNNW (330°)13.8 mphClear
5:35 AM5.0 °F1.4 °F85 %30.17 in10.0 miNNW (330°)11.5 mph
6:15 AM5.0 °F1.4 °F85 %30.19 in10.0 miNNW (330°)15.0 mph
6:35 AM5.0 °F1.4 °F85 %30.21 in10.0 miNNW (330°)13.8 mph
6:55 AM5.0 °F1.4 °F85 %30.21 in10.0 miNNW (330°)15.0 mphClear
7:15 AM3.2 °F-0.4 °F85 %30.23 in10.0 miNW (320°)13.8 mph
7:35 AM1.4 °F-0.4 °F92 %30.24 in10.0 miNW (320°)12.7 mph
7:55 AM1.4 °F-2.2 °F85 %30.25 in10.0 miNW (320°)13.8 mph
8:15 AM1.4 °F-2.2 °F85 %30.26 in10.0 miNNW (330°)15.0 mph
8:35 AM1.4 °F-2.2 °F85 %30.28 in10.0 miNNW (330°)15.0 mphClear
8:55 AM1.4 °F-2.2 °F85 %30.29 in10.0 miNW (320°)15.0 mph
9:15 AM1.4 °F-2.2 °F85 %30.30 in10.0 miNNW (330°)21.9 mph27.6 mph
9:35 AM1.4 °F-2.2 °F85 %30.31 in10.0 miNNW (340°)24.2 mph27.6 mph
9:55 AM-0.4 °F-4.0 °F85 %30.33 in10.0 miNorth (350°)21.9 mph
10:15 AM-0.4 °F-4.0 °F85 %30.35 in10.0 miNNW (340°)20.7 mphOvercast
10:35 AM1.4 °F-4.0 °F78 %30.36 in10.0 miNorth (350°)17.3 mph
10:55 AM1.4 °F-4.0 °F78 %30.37 in10.0 miNorth (350°)19.6 mph25.3 mph
11:15 AM1.4 °F-4.0 °F78 %30.38 in10.0 miNorth (350°)20.7 mph
11:35 AM1.4 °F-4.0 °F78 %30.39 in10.0 miNorth (350°)18.4 mph26.5 mph
11:55 AM1.4 °F-4.0 °F78 %30.39 in10.0 miNNW (340°)20.7 mph24.2 mphClear
12:15 PM1.4 °F-5.8 °F72 %30.41 in10.0 miNNW (340°)18.4 mph
12:35 PM1.4 °F-4.0 °F78 %30.42 in9.0 miNorth (350°)17.3 mph
12:55 PM1.4 °F-5.8 °F72 %30.42 in10.0 miNorth (350°)17.3 mph24.2 mph
1:15 PM1.4 °F-4.0 °F78 %30.43 in10.0 miNorth (350°)18.4 mph23.0 mph
1:35 PM1.4 °F-5.8 °F72 %30.43 in10.0 miNorth (350°)18.4 mph23.0 mphScattered Clouds
1:55 PM1.4 °F-7.6 °F66 %30.42 in10.0 miNorth (350°)18.4 mph25.3 mph
2:15 PM1.4 °F-7.6 °F66 %30.42 in10.0 miNNW (340°)21.9 mph
2:35 PM1.4 °F-7.6 °F66 %30.43 in10.0 miNNW (340°)18.4 mph
2:55 PM-0.4 °F-7.6 °F72 %30.44 in10.0 miNNW (340°)20.7 mph
3:15 PM1.4 °F-7.6 °F66 %30.46 in10.0 miNorth (350°)18.4 mph23.0 mph
3:35 PM-0.4 °F-7.6 °F72 %30.47 in10.0 miNorth (350°)18.4 mph
3:55 PM-0.4 °F-9.4 °F66 %30.48 in10.0 miNorth (350°)19.6 mph23.0 mph
4:15 PM-0.4 °F-9.4 °F66 %30.49 in10.0 miNorth (350°)19.6 mph24.2 mph
4:35 PM-0.4 °F-11.2 °F60 %30.52 in10.0 miNorth (350°)17.3 mphClear
4:55 PM-2.2 °F-11.2 °F66 %30.52 in10.0 miNorth (360°)18.4 mph
5:15 PM-2.2 °F-13.0 °F60 %30.52 in10.0 miNorth (360°)15.0 mph
5:35 PM-2.2 °F-13.0 °F60 %30.53 in10.0 miNorth (360°)15.0 mph
5:55 PM-4.0 °F-13.0 °F65 %30.52 in10.0 miNorth (10°)16.1 mph
6:15 PM-4.0 °F-13.0 °F65 %30.53 in10.0 miNorth (10°)13.8 mph
6:35 PM-4.0 °F-13.0 °F65 %30.53 in10.0 miNorth (10°)11.5 mph
6:55 PM-4.0 °F-13.0 °F65 %30.53 in10.0 miNorth (10°)12.7 mph
7:15 PM-4.0 °F-13.0 °F65 %30.54 in10.0 miNorth (10°)10.4 mph
7:35 PM-5.8 °F-13.0 °F71 %30.54 in10.0 miNNE (20°)11.5 mphClear
7:55 PM-5.8 °F-13.0 °F71 %30.54 in10.0 miNNE (20°)9.2 mph
8:15 PM-5.8 °F-13.0 °F71 %30.55 in10.0 miNNE (30°)6.9 mph
8:35 PM-7.6 °F-14.8 °F71 %30.55 in10.0 miNNE (30°)10.4 mph
8:55 PM-7.6 °F-14.8 °F71 %30.55 in10.0 miNNE (30°)10.4 mph
9:15 PM-7.6 °F-13.0 °F77 %30.56 in8.0 miNE (50°)9.2 mph
9:35 PM-7.6 °F-13.0 °F77 %30.57 in5.0 miENE (60°)11.5 mphHaze
10:15 PM-9.4 °F-16.6 °F71 %30.59 in10.0 miENE (70°)10.4 mph
10:35 PM-9.4 °F-16.6 °F71 %30.60 in10.0 miENE (60°)10.4 mph
10:55 PM-9.4 °F-16.6 °F71 %30.59 in10.0 miNE (50°)10.4 mphClear
11:15 PM-9.4 °F-16.6 °F71 %30.59 in10.0 miENE (70°)10.4 mph
11:35 PM-9.4 °F-18.4 °F65 %30.58 in10.0 miENE (70°)11.5 mph
11:55 PM-9.4 °F-16.6 °F71 %30.57 in10.0 miENE (70°)10.4 mph
Hourly data recorded from K2D5, located miles away from Fullerton, North Dakota







STORIES FROM OUR PARTNERS